Flight Track Log - Related Links

Times and Time Zones

All times are in EDT time to prevent confusion due to time zone crossing. See the VH-AYT flight status page for this flight to view local times or setup timezone preferences in your user account.

Time Position Orientation Groundspeed Altitude Reporting Facility
EDT Latitude Longitude Course Direction KTS MPH feet Rate Location/Type
Wed 03:25:17 AM -27.1686 151.3217 278° West 200  Level Aus ATC (Calculated)
Wed 03:26:15 AM -27.1624 151.2742 105° East 121 139 3,700 2,674 Climbing Aus ATC (RADAR)
Wed 03:26:49 AM -27.1672 151.2949 105° East 119 137 4,300 1,000 Climbing Aus ATC (RADAR)
Wed 03:27:39 AM -27.1787 151.3235 114° Southeast 121 139 5,100 953 Climbing Aus ATC (RADAR)
Wed 03:28:36 AM -27.1895 151.3551 111° Southeast 118 136 6,000 933 Climbing Aus ATC (RADAR)
Wed 03:29:09 AM -27.1964 151.3757 111° Southeast 121 139 6,500 750 Climbing Aus ATC (RADAR)
Wed 03:30:04 AM -27.2077 151.4100 110° East 134 154 7,100 467 Climbing Aus ATC (RADAR)
Wed 03:30:39 AM -27.2166 151.4360 111° Southeast 150 173 7,200 -50 Climbing Aus ATC (RADAR)
Wed 03:32:04 AM -27.2397 151.5045 111° Southeast 161 185 7,000 -86 Descending Aus ATC (RADAR)
Wed 03:32:59 AM -27.2547 151.5491 111° Southeast 163 188 7,000  Level Aus ATC (RADAR)
Wed 03:33:44 AM -27.2671 151.5847 112° Southeast 158 182 7,000  Level Aus ATC (RADAR)
Wed 03:34:24 AM -27.2775 151.6167 110° East 161 185 7,000  Level Aus ATC (RADAR)
Wed 03:35:24 AM -27.2932 151.6620 111° Southeast 151 174 7,000  Level Aus ATC (RADAR)
Wed 03:36:28 AM -27.3102 151.7103 112° Southeast 150 173 7,000  Level Aus ATC (RADAR)
Wed 03:37:18 AM -27.3235 151.7476 112° Southeast 153 176 7,000  Level Aus ATC (RADAR)
Wed 03:38:13 AM -27.3372 151.7901 110° East 156 180 7,000  Level Aus ATC (RADAR)
Wed 03:38:58 AM -27.3494 151.8247 112° Southeast 157 181 7,000  Level Aus ATC (RADAR)
Wed 03:39:28 AM -27.3580 151.8481 112° Southeast 159 183 7,000  Level Aus ATC (RADAR)
Wed 03:40:28 AM -27.3748 151.8946 112° Southeast 159 183 7,000  Level Aus ATC (RADAR)
Wed 03:41:58 AM -27.4004 151.9630 113° Southeast 156 180 7,000  Level Aus ATC (RADAR)
Wed 03:42:53 AM -27.4161 152.0047 113° Southeast 156 180 7,000  Level Aus ATC (RADAR)
Wed 03:43:48 AM -27.4316 152.0466 113° Southeast 157 181 7,000  Level Aus ATC (RADAR)
Wed 03:44:28 AM -27.4423 152.0773 111° Southeast 156 180 7,000  Level Aus ATC (RADAR)
Wed 03:45:17 AM -27.4549 152.1165 110° East 157 181 7,000  Level Aus ATC (RADAR)
Wed 03:46:32 AM -27.4710 152.1753 107° East 155 178 7,000  Level Aus ATC (RADAR)
Wed 03:47:03 AM -27.4780 152.1987 108° East 156 180 7,000  Level Aus ATC (RADAR)
Wed 03:48:02 AM -27.4920 152.2455 109° East 153 176 7,000  Level Aus ATC (RADAR)
Wed 03:48:47 AM -27.5041 152.2799 112° Southeast 155 178 7,000  Level Aus ATC (RADAR)
Wed 03:49:17 AM -27.5124 152.3032 112° Southeast 157 181 7,000  Level Aus ATC (RADAR)
Wed 03:50:17 AM -27.5280 152.3516 110° East 162 186 7,000  Level Aus ATC (RADAR)
Wed 03:51:07 AM -27.5404 152.3914 109° East 158 182 7,000 -50 Level Aus ATC (RADAR)
Wed 03:52:17 AM -27.5585 152.4470 110° East 161 185 6,900 -300 Descending Aus ATC (RADAR)
Wed 03:53:07 AM -27.5719 152.4894 110° East 168 193 6,400 -540 Descending Aus ATC (RADAR)
Wed 03:53:57 AM -27.5846 152.5319 109° East 168 193 6,000 -500 Descending Aus ATC (RADAR)
Wed 03:54:31 AM -27.5948 152.5615 111° Southeast 170 196 5,700 -606 Descending Aus ATC (RADAR)
Wed 03:55:46 AM -27.6122 152.6260 107° East 171 197 4,900 -675 Descending Aus ATC (RADAR)
Wed 03:57:02 AM -27.6307 152.6928 107° East 175 201 4,000 -783 Descending Aus ATC (RADAR)
Wed 03:57:41 AM -27.6412 152.7279 109° East 174 200 3,400 -857 Descending Aus ATC (RADAR)
Wed 03:58:26 AM -27.6307 152.7696 74° East 182 209 2,800 -218 Descending Aus ATC (RADAR)
Wed 03:59:31 AM -27.6140 152.8235 71° East 163 188 3,000 120 Climbing Aus ATC (RADAR)
Wed 04:00:06 AM -27.6072 152.8520 75° East 160 184 3,000  Level Aus ATC (RADAR)
Wed 04:00:56 AM -27.5998 152.8891 77° East 143 165 3,000 52 Level Aus ATC (RADAR)
Wed 04:02:01 AM -27.5903 152.9336 77° East 133 153 3,100  Climbing Aus ATC (RADAR)
Wed 04:02:41 AM -27.5834 152.9603 74° East 131 151 3,000 -600 Descending Aus ATC (RADAR)
Wed 04:03:31 AM -27.5802 152.9952 84° East 133 153 2,200 -783 Descending Aus ATC (RADAR)
Wed 04:04:36 AM -27.5818 153.0358 93° East 130 150 1,500 -571 Descending Aus ATC (RADAR)
Wed 04:05:16 AM -27.5603 153.0249 336° Northwest 132 152 1,200 -267 Descending Aus ATC (RADAR)
Wed 04:06:06 AM -27.5501 152.9958 292° West 116 133 1,100 -120 Descending Aus ATC (RADAR)

Login

Don't have an account? Register now (free) for customized features, flight alerts, and more!